[[{"header":{"parameterUnit":"m.s-1","parameterCategory":1,"la1":30.2991,"la2":30.254,"lo1":-89.0895,"lo2":-89.0444,"dy":0.0017,"dx":0.0017,"nx":28,"ny":28,"refTime":"2025-08-30T09:00:00:Z","depth":0,"parameterNumber":2,"parameterNumberName":"U-component_of_WINDS"},"data":[0,0,0,0,0,0,0,0,0,0,0,0,0,0,0,0,0,0,0,0,0,0,0,0,0,0,0,0,0,0,0,0,0,0,0,0,0,0,0,0,0,0,0,0,0,0,0,0,0,0,0,0,0,0,0,0,0,0,-1.66,-1.6602,0,-1.679,-1.6792,-1.6794,-1.6887,-1.6887,-1.6887,-1.6887,-1.7083,-1.7089,-1.7094,0,0,0,0,0,0,0,0,0,0,0,0,0,-1.6319,-1.6323,-1.66,-1.6602,-1.6605,-1.679,-1.6792,-1.6795,-1.6887,-1.6887,-1.6887,-1.6887,-1.7082,-1.7088,-1.7094,0,0,0,0,0,0,0,0,0,0,0,0,0,-1.6468,-1.6325,-1.6599,-1.6673,-1.6681,-1.6789,-1.6792,-1.6795,-1.6887,-1.6887,-1.6887,-1.6887,-1.708,-1.7087,-1.7095,-1.7145,0,0,-1.7119,-1.7123,0,0,0,0,0,0,0,0,-1.6459,-1.6478,-1.666,-1.6668,-1.6678,-1.6815,-1.6765,-1.6913,-1.6887,-1.6809,-1.6887,-1.6887,-1.6994,-1.7009,-1.7045,-1.7154,-1.7163,-1.712,-1.7125,-1.7128,-1.713,0,0,0,0,0,0,0,-1.6449,-1.647,-1.6675,-1.6662,-1.6673,-1.6697,-1.6718,-1.6794,-1.69,-1.6816,-1.6823,-1.6844,-1.6999,-1.7037,-1.705,-1.7166,-1.712,-1.7127,-1.7132,-1.7135,-1.7326,-1.7326,0,0,0,0,0,0,-1.6426,-1.6461,-1.6669,-1.6681,-1.6566,-1.6702,-1.6725,-1.6771,-1.6899,-1.6918,-1.6844,-1.6847,-1.7024,-1.7041,-1.7057,-1.7125,-1.7128,-1.7136,-1.714,-1.7326,-1.7326,-1.7327,0,0,0,0,0,0,-1.642,-1.6444,-1.6662,-1.6573,-1.6603,-1.6707,-1.6757,-1.6774,-1.6813,-1.692,-1.694,-1.6863,-1.7024,-1.7046,-1.7123,-1.7133,-1.7139,-1.7146,-1.7325,-1.7326,-1.7326,-1.7259,0,0,0,0,0,0,-1.6411,-1.6441,-1.6461,-1.6573,-1.6607,-1.6723,-1.6757,-1.6778,-1.6826,-1.6832,-1.6943,-1.6962,-1.7026,-1.711,-1.713,-1.7144,-1.7152,-1.7325,-1.7326,-1.7326,-1.7261,-1.7258,-1.7255,0,0,0,0,0,-1.6401,-1.6435,-1.6461,-1.6486,-1.6634,-1.6723,-1.6743,-1.6815,-1.6826,-1.6847,-1.6916,-1.6958,-1.7128,-1.7117,-1.7141,-1.7157,-1.7325,-1.7325,-1.7326,-1.7263,-1.7258,-1.7255,0,0,0,0,0,0,-1.6322,-1.6451,-1.6482,-1.6553,-1.6626,-1.6738,-1.6767,-1.6808,-1.688,-1.6884,-1.6971,-1.6995,-1.7064,-1.7118,-1.7103,-1.7212,-1.7231,-1.7236,-1.7174,-1.7171,-1.7168,-1.7153,-1.7159,0,0,0,0,0,-1.6313,-1.6374,-1.6484,-1.6536,-1.6571,-1.6662,-1.6704,-1.6753,-1.6833,-1.6865,-1.694,-1.7016,-1.7087,-1.7132,-1.7203,-1.7269,-1.7295,-1.7292,-1.7288,-1.7285,-1.7289,-1.7329,-1.7329,-1.7329,-1.7329,-1.7329,0,0,-1.6295,-1.6373,-1.6406,-1.6522,-1.6584,-1.6646,-1.6688,-1.6752,-1.6799,-1.6875,-1.6951,-1.7009,-1.71,-1.7171,-1.7206,-1.7219,-1.7295,-1.7286,-1.7283,-1.7289,-1.7329,-1.7329,-1.7329,-1.733,-1.7329,-1.7329,0,0,-1.6293,-1.6358,-1.6409,-1.647,-1.6564,-1.6625,-1.6637,-1.6743,-1.6784,-1.6862,-1.692,-1.6977,-1.7097,-1.716,-1.7208,-1.7229,-1.7271,-1.725,-1.7233,-1.727,-1.727,-1.727,-1.7278,-1.728,-1.7253,-1.7253,-1.7253,0,-1.6259,-1.6354,-1.6429,-1.649,-1.6539,-1.661,-1.6662,-1.6719,-1.6831,-1.6864,-1.6875,-1.7027,-1.7094,-1.7181,-1.7186,-1.7222,-1.7239,-1.7238,-1.7264,-1.7265,-1.7266,-1.7275,-1.7278,-1.725,-1.725,-1.7251,-1.7251,0,-1.6308,-1.6372,-1.6402,-1.6508,-1.6561,-1.6617,-1.6701,-1.6745,-1.6789,-1.6849,-1.6927,-1.7009,-1.7098,-1.7122,-1.7167,-1.7216,-1.7221,-1.7247,-1.7267,-1.7262,-1.7272,-1.7275,-1.7245,-1.7247,-1.7247,-1.7248,0,0,-1.6263,-1.6409,-1.6419,-1.6467,-1.6576,-1.6628,-1.6687,-1.6774,-1.681,-1.6885,-1.6937,-1.7037,-1.7062,-1.7115,-1.7167,-1.72,-1.7212,-1.7223,-1.7226,-1.7218,-1.7272,-1.7252,-1.7254,-1.724,-1.7241,-1.7242,-1.7264,0,-1.6277,-1.6385,-1.6454,-1.6536,-1.6597,-1.6665,-1.6716,-1.6789,-1.6846,-1.6906,-1.697,-1.7039,-1.7066,-1.7099,-1.7134,-1.7203,-1.7224,-1.7202,-1.729,-1.7293,-1.7266,-1.7259,-1.7239,-1.7256,-1.7269,-1.7269,-1.727,0,-1.6308,-1.638,-1.6467,-1.6569,-1.6597,-1.6642,-1.6727,-1.6784,-1.6867,-1.6907,-1.6966,-1.7018,-1.7084,-1.7098,-1.7191,-1.7174,-1.7214,-1.7253,-1.7256,-1.7268,-1.7281,-1.7271,-1.7264,-1.7266,-1.7276,-1.7276,-1.7275,0,-1.6266,-1.6386,-1.6453,-1.6493,-1.6613,-1.6643,-1.6695,-1.6779,-1.6826,-1.69,-1.6932,-1.7012,-1.7057,-1.7118,-1.7192,-1.7195,-1.7277,-1.7297,-1.7312,-1.731,-1.7327,-1.7325,-1.7326,-1.7351,-1.7351,-1.7351,-1.7351,0,-1.6275,-1.6326,-1.6436,-1.6478,-1.6537,-1.6616,-1.6672,-1.673,-1.6803,-1.6858,-1.6921,-1.6971,-1.7064,-1.7126,-1.7184,-1.7252,-1.7271,-1.7305,-1.732,-1.73,-1.7296,-1.7328,-1.7329,-1.7352,-1.7352,-1.7351,-1.7351,0,-1.624,-1.6315,-1.6394,-1.6501,-1.6529,-1.6567,-1.666,-1.6703,-1.6762,-1.6831,-1.6851,-1.6945,-1.7021,-1.71,-1.7203,-1.7242,-1.7308,-1.7328,-1.7279,-1.7287,-1.7298,-1.7296,-1.732,-1.7328,-1.7347,-1.7346,-1.7346,0,-1.624,-1.6281,-1.6392,-1.6432,-1.6482,-1.6547,-1.6595,-1.6674,-1.6722,-1.682,-1.6852,-1.6932,-1.7,-1.7118,-1.7197,-1.7276,-1.7299,-1.7302,-1.7311,-1.7289,-1.73,-1.7296,-1.7301,-1.7298,-1.7298,-1.7297,-1.7297,0,-1.6234,-1.6269,-1.6336,-1.6416,-1.6471,-1.6538,-1.6608,-1.6637,-1.6731,-1.6781,-1.6859,-1.6912,-1.7016,-1.7095,-1.7183,-1.7238,-1.7283,-1.7293,-1.7301,-1.7281,-1.7251,-1.7268,-1.7271,-1.7292,-1.7293,-1.7293,-1.7293,-1.7294,-1.6217,-1.6256,-1.634,-1.6412,-1.6473,-1.6536,-1.6582,-1.6647,-1.6713,-1.6803,-1.6846,-1.6924,-1.7007,-1.713,-1.7183,-1.7246,-1.7259,-1.727,-1.7273,-1.7275,-1.727,-1.724,-1.7262,-1.7263,-1.7263,-1.7263,-1.7263,0,-1.6214,-1.6271,-1.6337,-1.6432,-1.6488,-1.6525,-1.6604,-1.6649,-1.6716,-1.6789,-1.6855,-1.6944,-1.7021,-1.7105,-1.7187,-1.7221,-1.7244,-1.724,-1.7239,-1.7251,-1.7253,-1.7239,-1.722,-1.722,-1.722,-1.722,-1.722,-1.722,-1.6219,-1.6287,-1.6332,-1.6431,-1.6489,-1.6565,-1.6606,-1.6665,-1.6724,-1.6821,-1.6884,-1.6938,-1.7016,-1.7104,-1.7177,-1.7199,-1.7227,-1.7217,-1.7246,-1.7247,-1.725,-1.7254,-1.724,-1.7222,-1.7222,-1.7238,-1.7238,-1.7238]},{"header":{"parameterUnit":"m.s-1","parameterCategory":1,"la1":30.2991,"la2":30.254,"lo1":-89.0895,"lo2":-89.0444,"dy":0.0017,"dx":0.0017,"nx":28,"ny":28,"refTime":"2025-08-30T09:00:00:Z","depth":0,"parameterNumber":3,"parameterNumberName":"V-component_of_WINDS"},"data":[0,0,0,0,0,0,0,0,0,0,0,0,0,0,0,0,0,0,0,0,0,0,0,0,0,0,0,0,0,0,0,0,0,0,0,0,0,0,0,0,0,0,0,0,0,0,0,0,0,0,0,0,0,0,0,0,0,0,0.1946,0.1946,0,0.1922,0.1922,0.1921,0.1916,0.1917,0.1917,0.1917,0.1892,0.1891,0.1891,0,0,0,0,0,0,0,0,0,0,0,0,0,0.1989,0.1988,0.1946,0.1946,0.1945,0.1922,0.1922,0.1921,0.1916,0.1917,0.1917,0.1917,0.1892,0.1891,0.189,0,0,0,0,0,0,0,0,0,0,0,0,0,0.1968,0.1988,0.1946,0.194,0.1939,0.1922,0.1922,0.1921,0.1916,0.1917,0.1917,0.1917,0.1893,0.1892,0.189,0.1877,0,0,0.1887,0.1886,0,0,0,0,0,0,0,0,0.1969,0.1967,0.1941,0.194,0.194,0.1922,0.1928,0.1906,0.1916,0.1925,0.1917,0.1917,0.1902,0.19,0.1895,0.1876,0.1875,0.1886,0.1886,0.1885,0.1885,0,0,0,0,0,0,0,0.1971,0.1968,0.1936,0.1941,0.194,0.1939,0.1936,0.1924,0.1912,0.1924,0.1924,0.1921,0.1902,0.1896,0.1894,0.1875,0.1886,0.1885,0.1885,0.1884,0.1846,0.1846,0,0,0,0,0,0,0.1973,0.1969,0.1937,0.1936,0.1955,0.1938,0.1935,0.1928,0.1912,0.191,0.1921,0.1921,0.1898,0.1896,0.1893,0.1878,0.1885,0.1884,0.1883,0.1846,0.1846,0.1846,0,0,0,0,0,0,0.1974,0.197,0.1938,0.1952,0.1948,0.1937,0.1929,0.1927,0.1922,0.191,0.1908,0.1917,0.1898,0.1895,0.1882,0.1877,0.1883,0.1882,0.1847,0.1846,0.1846,0.1847,0,0,0,0,0,0,0.1975,0.1971,0.1965,0.1952,0.1947,0.1926,0.1928,0.1926,0.1919,0.1919,0.1906,0.1904,0.1898,0.1884,0.1881,0.1876,0.1881,0.1847,0.1847,0.1846,0.1847,0.1847,0.1846,0,0,0,0,0,0.1977,0.1966,0.1965,0.1961,0.194,0.1926,0.1923,0.1917,0.1919,0.1914,0.1907,0.1904,0.1878,0.1882,0.1879,0.1873,0.1847,0.1847,0.1846,0.1848,0.1847,0.1846,0,0,0,0,0,0,0.1978,0.1964,0.1963,0.1947,0.1938,0.1925,0.1918,0.1916,0.1906,0.1906,0.1899,0.1896,0.1883,0.1877,0.1882,0.1861,0.1863,0.1862,0.1865,0.1865,0.1864,0.1866,0.188,0,0,0,0,0,0.1976,0.1966,0.1955,0.1942,0.1938,0.1929,0.1922,0.1919,0.1909,0.1905,0.1897,0.1887,0.1877,0.1871,0.1861,0.1847,0.1845,0.1842,0.1841,0.1841,0.1839,0.1833,0.1832,0.1844,0.1844,0.1844,0,0,0.1973,0.1964,0.1958,0.1942,0.1934,0.1925,0.1925,0.1914,0.1907,0.1903,0.189,0.1884,0.1874,0.186,0.1854,0.1855,0.1836,0.184,0.184,0.1839,0.1833,0.1832,0.1831,0.1843,0.1843,0.1844,0,0,0.1961,0.1953,0.1943,0.1936,0.1925,0.1919,0.1917,0.1905,0.1901,0.1889,0.1886,0.1878,0.186,0.1853,0.1847,0.1836,0.1834,0.1833,0.183,0.1824,0.1823,0.1822,0.1819,0.1818,0.1832,0.1832,0.1832,0,0.1958,0.1943,0.1937,0.1927,0.1921,0.1918,0.1908,0.1901,0.1887,0.1883,0.1885,0.1864,0.1856,0.1842,0.184,0.1835,0.1833,0.1834,0.1824,0.1823,0.1822,0.1819,0.1818,0.1832,0.1832,0.1832,0.1832,0,0.194,0.193,0.1923,0.1911,0.1904,0.1894,0.1887,0.1881,0.1879,0.1873,0.1861,0.1853,0.1842,0.1838,0.1835,0.1824,0.1825,0.1825,0.1827,0.1821,0.1818,0.1817,0.1832,0.1832,0.1832,0.1832,0,0,0.1927,0.1914,0.1911,0.1906,0.1895,0.1888,0.1878,0.1868,0.1863,0.1855,0.1847,0.1833,0.1834,0.1827,0.1824,0.1819,0.1812,0.1819,0.1819,0.1819,0.1801,0.1801,0.18,0.1811,0.1811,0.1811,0.1802,0,0.1915,0.1897,0.1893,0.1879,0.187,0.1869,0.1861,0.1853,0.1849,0.1841,0.1836,0.1827,0.1828,0.1825,0.1819,0.1814,0.1808,0.1815,0.1804,0.1804,0.1807,0.1798,0.1798,0.179,0.1801,0.1801,0.18,0,0.1897,0.189,0.1874,0.1867,0.1863,0.1856,0.1847,0.184,0.1832,0.1829,0.1823,0.1821,0.1812,0.1815,0.1803,0.1807,0.1803,0.18,0.18,0.1798,0.1802,0.1797,0.1787,0.1786,0.1798,0.1799,0.1799,0,0.189,0.1876,0.1865,0.1861,0.1852,0.1847,0.1843,0.1835,0.183,0.1823,0.182,0.1811,0.1807,0.1801,0.1797,0.1799,0.1786,0.1788,0.1784,0.1784,0.178,0.178,0.177,0.1778,0.1778,0.1778,0.1778,0,0.1877,0.1868,0.1862,0.1856,0.1846,0.1843,0.1833,0.1829,0.1823,0.1816,0.1814,0.1808,0.1803,0.1797,0.1793,0.1785,0.1782,0.1781,0.178,0.1781,0.1781,0.1778,0.1778,0.1777,0.1777,0.1777,0.1778,0,0.1867,0.1862,0.1851,0.1844,0.1842,0.1835,0.1829,0.1823,0.182,0.1811,0.1809,0.1804,0.1796,0.1791,0.1781,0.1779,0.177,0.1769,0.1773,0.1772,0.1769,0.1769,0.1755,0.1754,0.1762,0.1762,0.1762,0,0.1858,0.1852,0.1844,0.184,0.1836,0.1828,0.1824,0.182,0.1816,0.1808,0.1803,0.1796,0.1789,0.1777,0.1773,0.1766,0.1765,0.1761,0.1764,0.1765,0.1765,0.1766,0.1766,0.176,0.176,0.176,0.176,0,0.1844,0.1843,0.1836,0.183,0.1824,0.1819,0.1813,0.1809,0.1805,0.18,0.1793,0.1788,0.1779,0.1772,0.1765,0.1761,0.176,0.1759,0.1758,0.1759,0.1761,0.176,0.1771,0.1759,0.1759,0.1759,0.1759,0.1759,0.1835,0.183,0.1824,0.1817,0.1813,0.1808,0.1803,0.18,0.1794,0.1786,0.1785,0.1777,0.1772,0.1762,0.1758,0.1753,0.1754,0.1751,0.1751,0.1751,0.1751,0.1762,0.1752,0.1752,0.1752,0.1752,0.1752,0,0.1822,0.1819,0.1812,0.1805,0.18,0.1801,0.1795,0.1791,0.1784,0.178,0.1774,0.1766,0.176,0.1756,0.1749,0.1746,0.1745,0.1744,0.1744,0.1744,0.175,0.1752,0.1745,0.1745,0.1745,0.1745,0.1745,0.1745,0.1814,0.1806,0.1804,0.1794,0.1791,0.1784,0.1781,0.1777,0.1773,0.1765,0.176,0.1758,0.1753,0.1747,0.1742,0.174,0.1738,0.1737,0.1736,0.1742,0.1743,0.1744,0.1746,0.1737,0.1737,0.173,0.173,0.173]}]]